THOR ABLESTAR DEB, 715

Orbit data source: Space-Track

THOR ABLESTAR DEB, 715 is space debris in LEO originally from a launch on Thu, 05 Dec 1963 UTC launched from the Air Force Western Test Range (AFWTR). Debris objects in space refer to the collection of defunct objects orbiting the Earth. Examples of debris include non-operational satellites, rocket bodies, and fragments generated from explosions, collisions, or faulty payload assembly.

Loading next visibility...
Identifier
715, 1963-049E
Orbit
LEO
Country
Flag of USUS
Related business
Manufacturer
Unknown
Mission
Spacecraft
Bus & Motor
Unknown
Mass
Unknown
Launch date (UTC)
1963-12-05 (62 years ago)
Launch vehicle
Unknown
Launch site
Air Force Western Test Range (AFWTR)
Object type
Payload
Rocket body
Debris
Shape & HBR
Unknown shape, 0.1 m
Radar Cross Section
Small (<0.1 m²)

Expand to show TLE details & history
Last TLE update: 22 hours ago

TLE from 22 hours ago
0 THOR ABLESTAR DEB
1 00715U 63049E   25346.27208935  .00001200  00000-0  12373-2 0  9992
2 00715  89.9109  79.3486 0028303   9.5679   3.7543 13.75311965 77692
Epoch: 2025-12-12T06:31Z
TLE epoch observation values (Epoch: 2025-12-12T06:31:48.519Z)
Latitude
13.30717°
Longitude
-99.79869°
Altitude
962.022 km
Speed
7.382 km/s
True Right ascension
05h 17m 28s
True Declination
13° 13' 57"
Sunlit
Object was in full shadow at epoch
Visualization orbit readout
Latitude
Unknown
Longitude
Unknown
Altitude
Unknown
Speed
Unknown
Apparent Right ascension
Unknown
Apparent Declination
Unknown
Sunlit
N/A
Visualization observer readout
Local Sidereal Time
02:56:05
Azimuth
Unknown
Elevation
Unknown
Doppler factor
Unknown
Orbital elements
Apogee altitude
998.394 km
Perigee altitude
956.756 km
Semi-major axis
7,355.712 km
Eccentricity
0.00283
Inclination
89.9109°
RAAN
79.3486°
Arg. of periapsis
9.5679°
True anomaly
3.77561°
Mean anomaly
3.7543°
Eccentric anomaly
3.76495°
Mean motion
3.44038 °/min
Orbital period
104.64 mins
BSTAR
0.0012373
Loading maneuver chart data...
Computing Atmospheric mass density...
Loading historical data...
Loading historical data...
Loading historical data...
Loading historical data...
Loading historical data...
Loading historical data...
Loading historical data...

Documentation

Showing up to 5 results
|